Location: George Washington National Forest Helicopter Landing Site
(38.6463°N, 79.0851°W)
Time: 02:56:52
(UTC-04:00)

Tiros 1 despin weight - Pass Details

Date: 27 August 2019
Orbit: 594 x 642 km, 48.2° (Epoch: 17 September)

Event Time Altitude Azimuth Distance (km) Brightness Sun altitude
Rises 23:22:29 0° 257° (WSW) 2,820 ? -34.6°
Enters shadow 23:22:56 - 258° (WSW) 2,647 ? -34.6°
Reaches altitude 10° 23:24:51 10° 265° (W) 1,923 - -34.8°
Maximum altitude 23:29:03 43° 337° (NNW) 847 - -35.3°
Drops below altitude 10° 23:33:18 10° 49° (NE) 1,945 - -35.8°
Sets 23:35:42 0° 56° (ENE) 2,857 - -36.0°
